User: anonymous   Login
Location: Lac Lasalle
(46.0398°N, 74.1576°W)
Time: 13:51:46
(UTC-05:00)
Language:

QB50P2 - Orbit

View from above orbital plane
View from above orbital plane
View from above satellite
View from above satellite

Ground track
Ground track

The orbit data is extracted from the following two-line orbital elements,

1 40032U 14033Y   19340.71535108 +.00000204 +00000-0 +27983-4 0  9996
2 40032 097.8998 257.9831 0011023 207.7132 152.3498 14.88563611296164
Epoch (UTC): 06 December 2019 17:10:06
Eccentricity: 0.0011023
inclination: 97.8998°
perigee height: 595 km
apogee height: 610 km
right ascension of ascending node: 257.9831°
argument of perigee: 207.7132°
revolutions per day: 14.88563611
mean anomaly at epoch: 152.3498°
orbit number at epoch: 29616

The dashed part of the orbit path shows where the satellite is in the earth's shadow,  

DLR